User: anonymous   Login
Location: Cran-Gévrier
(45.9039°N, 6.1012°E)
Time: 16:55:55
(UTC+00:00)
Language:

PSLV R/B - Orbit

View from above orbital plane
View from above orbital plane
View from above satellite
View from above satellite

Ground track
Ground track

The orbit data is extracted from the following two-line orbital elements,

1 26960U 01049D   24105.71314985  .00012967  00000-0  55323-3 0  9993
2 26960  97.7418 150.0171 0038685 303.8251  55.9304 15.22364777230362
Epoch (UTC): 14 April 2024 17:06:56
Eccentricity: 0.0038685
inclination: 97.7418°
perigee height: 472 km
apogee height: 525 km
right ascension of ascending node: 150.0171°
argument of perigee: 303.8251°
revolutions per day: 15.22364777
mean anomaly at epoch: 55.9304°
orbit number at epoch: 23036

The dashed part of the orbit path shows where the satellite is in the earth's shadow,  

DLR